SCP
0 0 0 0 0 0 0 0 0 0 0 -0 0 0 0 0 0 0 0 0 0 0 0 0 0 0 0 0 0 0 0 0 0 0 0 0 0 0 0 0 0 0 0 0 0 0 0 0 0 0 0 0 0 0
0 0 0 0 0 0 0 0 0 0 0 0 -0 0 0 0 0 0 0 0 0 0 0 0 0 0 0 0 0 0 0 0 0 0 0 0 0 0 0 0 0 0 0 0 0 0 0 0 0 0 0 0 0 0
0 0 0 0 0 0 0 0 0 0 0 0 0 0 0 0 0 0 0 0 0 0 0 0 0 0 0 0 0 0 0 0 0 0 0 0 0 0 0 0 0 0 0 0 0 0 0 0 0 0 0 0 0 0
0 0 0 0 0 0 0 0 0 0 0 0 0 0 0 0 0 0 0 0 0 0 0 0 0 0 0 0 0 0 0 0 0 0 0 0 0 0 0 0 0 0 0 0 0 0 0 0 0 0 0 0 0 0
0 0 0 0 0 0 0 0 0 0 0 0 0 0 0 0 0 0 0 0 0 0 0 0 0 0 0 0 0 0 0 0 0 0 0 0 0 0 0 0 0 0 0 0 0 0 0 0 0 0 0 0 0 0
0 0 0 0 0 0 0 0 0 0 0 0 0 0 0 0 0 0 0 0 0 0 0 0 0 0 0 0 0 0 0 0 0 0 0 0 0 0 0 0 0 0 0 0 0 0 0 0 0 0 0 0 0 0
0 0 0 0 0 0 0 0 0 0 0 0 0 0 0 0 0 0 0 0 0 0 0 0 0 0 0 0 0 0 0 0 0 0 0 0 0 0 0 0 0 0 0 0 0 0 0 0 0 0 0 0 0 0
0 0 0 0 0 0 0 0 0 0 0 0 0 0 0 0 0 0 0 0 0 0 0 0 0 0 0 0 0 0 0 0 0 0 0 0 0 0 0 0 0 0 0 0 0 0 0 0 0 0 0 0 0 0
0 0 0 0 0 0 0 0 0 0 0 0 0 0 0 0 0 0 0 0 0 0 0 0 0 0 0 0 0 0 0 0 0 0 0 0 0 0 0 0 0 0 0 0 0 0 0 0 0 0 0 0 0 0
0 0 0 0 0 0 0 0 0 0 0 0 0 0 0 0 0 0 0 0 0 0 0 0 0 0 0 0 0 0 0 0 0 0 0 0 0 0 0 0 0 0 0 0 0 0 0 0 0 0 0 0 0 0
0 0 0 0 0 0 0 0 0 0 0 0 0 0 0 0 0 0 0 0 0 0 0 0 0 0 0 0 0 0 0 0 0 0 0 0 0 0 0 0 0 0 0 0 0 0 0 0 0 0 0 0 0 0
0 0 0 0 0 0 0 0 0 0 0 0 0 0 0 0 0 0 0 0 0 0 0 0 0 0 0 0 0 0 0 0 0 0 0 0 0 0 0 0 0 0 0 0 0 0 0 0 0 0 0 0 0 0
0 0 0 0 0 0 0 0 0 0 0 0 0 0 0 0 0 0 0 0 0 0 0 0 0 0 0 0 0 0 0 0 0 0 0 0 0 0 0 0 0 0 0 0 0 0 0 0 0 0 0 0 0 0
0 0 0 0 0 0 0 0 0 0 0 0 0 0 0 0 0 0 0 0 0 0 0 0 0 0 0 0 0 0 0 0 0 0 0 0 0 0 0 0 0 0 0 0 0 0 0 0 0 0 0 0 0 0
0 0 0 0 0 0 0 0 0 0 0 0 0 0 0 0 0 0 0 0 0 0 0 0 0 0 0 0 0 0 0 0 0 0 0 0 0 0 0 0 0 0 0 0 0 0 0 0 0 0 0 0 0 0
0 0 0 0 0 0 0 0 0 0 0 0 0 0 0 0 0 0 0 0 0 0 0 0 0 0 0 0 0 0 0 0 0 0 0 0 0 0 0 0 0 0 0 0 0 0 0 0 0 0 0 0 0 0
0 0 0 0 0 0 0 0 0 0 0 0 0 0 0 0 0 0 0 0 0 0 0 0 0 0 0 0 0 0 0 0 0 0 0 0 0 0 0 0 0 0 0 0 0 0 0 0 0 0 0 0 0 0
0 0 0 0 0 0 0 0 0 0 0 0 0 0 0 0 0 0 0 0 0 0 0 0 0 0 0 0 0 0 0 0 0 0 0 0 0 0 0 0 0 0 0 0 0 0 0 0 0 0 0 0 0 0
0 0 0 0 0 0 0 0 0 0 0 0 0 0 0 0 0 0 0 0 0 0 -0 0 0 0 0 0 0 0 0 0 0 0 0 0 0 0 0 0 0 0 0 0 0 0 0 0 0 0 0 0 0 0
0 0 0 0 0 0 0 0 0 0 0 0 0 0 0 0 0 0 0 0 0 0 0 0 0 0 0 0 0 0 0 0 0 0 0 0 0 0 0 0 0 0 0 0 0 0 0 0 0 0 0 0 0 0
0 0 0 0 0 0 0 0 0 0 0 0 0 0 0 0 0 0 0 0 0 0 0 0 0 0 0 0 0 0 0 0 0 0 0 0 0 0 0 0 0 0 0 0 0 0 0 0 0 0 0 0 0 0
0 0 0 0 0 0 0 0 0 0 0 0 0 0 0 0 0 0 0 0 0 0 0 0 0 0 0 0 0 0 0 0 0 0 0 0 0 0 0 0 0 0 0 0 0 0 0 0 0 0 0 0 0 0
0 0 0 0 0 0 0 0 0 0 0 0 0 0 0 0 0 0 0 0 0 0 0 0 0 0 0 0 0 0 0 0 0 0 0 0 0 0 0 0 0 0 0 0 0 0 0 0 0 0 0 0 0 0
0 0 0 0 0 0 0 0 0 0 0 0 0 0 0 0 0 0 0 0 0 0 0 0 0 0 0 0 0 0 0 0 0 0 0 0 0 0 0 0 0 0 0 0 0 0 0 0 0 0 0 0 0 0
0 0 0 0 0 0 0 0 0 0 0 0 0 0 0 0 0 0 0 0 0 0 0 0 0 0 0 0 0 0 0 0 0 0 0 0 0 0 0 0 0 0 0 0 0 0 0 0 0 0 0 0 0 0
-0 0 0 0 0 0 0 0 0 0 0 0 0 0 0 0 0 0 0 0 0 0 0 0 0 0 0 0 0 0 0 0 0 0 0 0 0 0 0 0 0 0 0 0 0 0 0 0 0 0 0 0 0 0
-0 0 0 0 0 0 0 0 0 0 0 0 0 0 0 0 0 0 0 0 0 0 0 0 0 0 0 0 0 0 0 0 0 0 0 0 0 0 0 0 0 0 0 0 0 0 0 0 0 0 0 0 0 0
0 0 0 0 0 0 0 0 0 0 0 0 0 0 0 0 0 0 0 0 0 0 0 0 0 0 0 0 0 0 0 0 0 0 0 0 0 0 0 0 0 0 0 0 0 0 0 0 0 0 0 0 0 0
0 0 0 0 0 0 0 0 0 0 0 0 0 0 0 0 0 0 0 0 0 0 0 0 0 0 0 0 0 0 0 0 0 0 0 0 0 0 0 0 0 0 0 0 0 0 0 0 0 0 0 0 0 0
0 0 0 0 0 0 0 0 0 0 0 0 0 0 0 0 0 0 0 0 0 0 0 0 0 0 0 0 0 0 0 0 0 0 0 0 0 0 0 0 0 0 0 0 0 0 0 0 0 0 0 0 0 0
0 0 0 0 0 0 0 0 0 0 0 0 0 0 0 0 0 0 0 0 0 0 0 0 0 0 0 0 0 0 0 0 0 0 0 0 0 0 0 0 0 0 0 0 0 0 0 0 0 0 0 0 0 0
0 0 0 0 0 0 0 0 0 0 0 0 0 0 0 0 0 0 0 0 0 0 0 0 0 0 0 0 0 0 0 0 0 0 0 0 0 0 0 0 0 0 0 0 0 0 0 0 0 0 0 0 0 0
0 0 0 0 0 0 0 0 0 0 0 0 0 0 0 0 0 0 0 0 0 0 0 0 0 0 0 0 0 0 0 0 0 0 0 0 0 0 0 0 0 0 0 0 0 0 0 0 0 0 0 0 0 0
Wind_Speed_500mb
59 69 62 64 56 54 55 54 54 56 51 48 45 45 43 39 39 37 29 24 34 11 8 15 13 12 15 19 10 20 11 3 3 5 7 8 6 11 6 5 14 14 17 10 4 6 17 21 13 15 10 17 32 30
71 64 72 67 62 64 62 59 60 62 56 57 52 43 44 45 45 49 39 35 34 20 10 27 26 18 19 19 22 44 6 12 19 7 1 6 4 2 7 6 3 5 15 12 18 13 3 46 14 42 29 29 34 33
73 76 65 71 65 61 68 64 62 60 54 48 63 62 56 45 45 53 52 39 36 20 20 30 25 34 31 21 22 21 12 17 18 12 12 4 5 6 8 9 5 11 11 6 8 9 17 31 38 34 39 56 45 40
67 68 65 68 64 64 70 61 59 59 59 59 58 52 50 46 49 53 67 52 47 14 7 8 20 40 38 39 32 29 18 32 27 21 9 6 5 11 6 4 8 12 18 14 6 11 9 33 46 51 51 53 48 51
71 67 65 65 65 75 59 68 51 60 59 57 56 55 54 50 49 51 56 65 60 31 10 6 15 29 31 44 45 40 33 39 30 10 5 5 10 8 1 3 12 21 12 9 10 33 24 33 45 39 42 50 50 54
64 64 67 61 60 61 61 59 64 44 48 54 64 54 54 53 43 51 28 63 69 61 10 5 16 30 36 37 51 51 43 39 29 16 8 10 11 11 6 8 39 25 27 40 25 59 49 56 55 54 52 58 59 56
49 53 58 54 64 63 59 59 55 56 43 41 41 42 42 53 57 47 10 13 49 63 13 5 5 16 34 36 36 45 40 23 22 14 10 13 11 23 5 19 7 28 39 54 58 63 48 68 51 54 46 53 45 48
39 46 44 57 61 58 63 62 57 53 59 53 37 37 36 36 36 36 42 8 30 55 13 6 6 4 21 14 10 22 20 30 18 17 9 8 16 13 13 6 23 47 58 60 71 67 74 70 64 63 58 53 53 55
15 23 33 51 71 59 59 60 56 53 50 59 53 46 36 34 26 33 22 17 25 29 9 8 11 10 26 11 14 14 18 6 18 8 9 21 8 14 18 33 42 60 63 75 72 59 58 53 58 60 58 60 57 55
17 18 32 28 42 49 56 57 59 54 51 42 48 29 18 25 24 30 20 22 22 15 15 4 16 5 17 6 4 12 11 6 7 10 26 11 16 73 61 42 50 63 72 77 58 56 57 57 63 63 57 54 53 51
11 14 19 36 37 58 57 74 59 56 53 57 24 14 30 56 31 20 12 10 7 5 12 14 29 10 24 7 6 14 6 5 7 9 14 6 8 45 71 78 91 95 91 83 70 64 58 58 61 51 53 54 49 46
7 7 6 23 37 30 54 66 65 64 29 46 22 39 40 18 13 10 10 5 7 12 12 12 20 22 21 17 7 11 9 6 10 11 7 6 19 63 56 65 81 87 84 82 82 75 64 57 52 44 39 41 37 34
6 6 5 9 18 31 38 47 60 58 36 43 19 13 14 9 9 15 15 2 8 8 21 17 5 21 13 12 6 6 12 12 15 9 8 13 38 55 67 71 65 61 60 59 58 51 43 38 30 27 27 28 26 23
7 16 17 13 11 13 19 32 63 55 28 9 9 6 7 7 7 8 9 10 12 15 37 27 10 7 11 7 6 8 7 8 10 9 14 9 40 41 41 37 39 43 43 39 36 32 31 28 25 22 20 18 15 14
8 15 19 18 19 20 18 22 48 49 11 8 10 8 8 6 5 8 9 8 7 14 37 13 8 10 4 7 8 5 7 7 10 12 8 5 14 24 26 27 29 30 29 27 26 26 25 23 20 19 16 14 11 9
12 4 11 6 15 17 16 21 25 14 7 11 8 7 5 6 6 4 7 9 9 23 19 8 6 7 8 6 9 13 11 13 9 4 13 15 13 6 4 10 15 20 24 27 27 25 21 19 17 16 14 10 6 4
8 26 19 2 7 13 19 22 14 13 11 12 3 9 11 17 10 10 11 10 11 15 5 5 10 12 3 5 9 9 7 4 9 9 11 13 11 11 5 2 10 14 19 23 26 26 25 22 19 14 10 6 3 4
19 12 3 3 6 9 15 16 3 4 9 8 2 5 7 13 17 15 15 15 9 3 1 4 3 4 4 7 5 3 8 7 10 9 9 7 5 2 4 11 17 22 28 32 29 25 22 19 15 11 7 4 2 2
2 4 5 1 3 6 6 4 3 7 6 6 8 11 13 15 16 10 3 6 8 6 3 3 4 3 3 7 7 11 13 13 13 12 3 7 15 18 20 23 26 27 23 22 24 24 21 17 14 10 7 4 1 3
12 12 4 11 13 6 6 7 7 9 4 4 7 10 12 12 12 13 11 8 8 7 12 9 5 6 7 9 11 11 11 10 5 1 3 6 10 13 17 18 19 22 24 23 21 19 17 15 11 8 5 4 3 1
18 9 2 7 8 7 9 7 10 9 8 9 8 6 9 11 12 12 14 15 17 12 5 10 10 14 12 11 12 10 9 5 3 5 6 8 14 19 20 22 21 19 17 16 15 15 14 12 9 6 3 2 2 1
9 7 7 7 6 8 12 13 10 8 6 8 7 7 11 5 10 13 13 25 12 11 14 18 21 21 15 10 9 8 6 5 6 8 10 10 21 18 18 18 17 16 16 15 14 11 9 7 6 5 4 3 1 2
18 13 9 9 8 11 7 8 6 9 7 3 5 7 6 6 8 10 12 11 11 25 25 22 22 16 12 11 11 11 9 6 2 3 11 16 17 16 16 16 16 15 15 12 9 8 8 7 7 6 6 4 4 5
13 10 14 13 19 4 5 10 7 7 7 6 5 5 5 5 6 11 7 7 17 26 28 25 22 13 10 12 12 11 13 14 14 13 14 14 13 16 17 16 15 13 12 10 9 8 9 10 10 8 7 7 7 8
8 21 15 13 16 10 10 7 8 7 6 6 5 6 4 7 6 7 5 12 34 35 31 24 21 21 21 18 17 17 16 18 18 19 21 19 15 14 12 9 7 6 5 6 7 9 11 12 10 10 10 10 11 13
15 18 12 10 11 8 7 6 8 7 5 6 7 7 5 5 8 7 4 24 31 37 34 28 26 22 25 22 19 17 18 16 15 14 14 10 7 6 4 2 2 3 5 8 10 12 15 14 13 12 13 14 16 19
11 10 15 17 9 7 5 8 8 8 9 9 6 9 6 9 8 6 16 25 34 29 23 19 18 20 21 20 17 15 15 14 13 11 8 5 4 4 4 5 6 8 10 10 11 15 17 17 17 18 19 19 20 25
10 20 10 22 13 18 6 7 9 9 6 12 3 12 7 7 5 16 16 26 22 21 23 24 21 19 19 20 18 14 10 10 9 8 6 6 4 4 5 6 8 9 10 11 13 15 17 19 21 22 26 28 28 29
12 29 12 8 10 16 15 10 6 9 12 6 4 6 6 10 18 24 27 26 24 24 24 23 24 20 20 21 17 15 14 13 10 7 6 4 4 8 8 8 9 10 12 14 16 19 21 23 25 30 32 35 39 42
16 28 9 11 9 10 13 13 13 23 33 35 37 44 39 42 46 39 41 39 39 40 36 32 27 23 23 17 17 17 18 19 18 14 10 9 14 16 17 18 19 21 23 25 26 27 29 33 35 39 42 45 48 50
20 16 7 14 9 8 14 22 27 30 32 34 35 32 24 19 39 48 40 39 41 40 38 39 36 34 30 25 21 17 13 10 15 17 18 20 23 25 27 28 29 31 33 35 38 40 41 43 45 48 50 52 53 55
20 17 6 7 3 7 7 5 7 8 7 9 9 10 10 9 11 32 58 32 34 36 37 39 44 49 39 29 28 26 31 35 37 38 38 38 40 42 43 45 45 47 48 48 49 50 52 54 57 58 60 61 63 64
7 13 14 8 5 4 9 6 3 6 6 5 5 12 12 7 9 6 39 63 42 32 31 34 38 46 54 43 35 34 37 41 44 46 47 48 51 51 51 47 50 54 56 59 60 61 62 64 66 68 69 70 71 72
Wind_Direction_500mb
274 252 246 247 241 244 238 234 243 233 220 224 222 220 215 215 216 217 220 218 215 210 251 215 185 158 151 181 148 158 113 234 36 145 150 175 156 200 140 170 170 154 170 204 85 215 267 164 110 163 195 157 171 192
261 268 255 239 241 246 245 238 236 239 228 208 217 221 215 212 210 213 210 211 207 217 253 240 237 216 207 209 171 165 203 157 165 102 80 96 147 85 136 220 175 234 200 183 181 204 241 178 191 217 232 219 222 229
259 253 263 245 242 241 240 240 232 230 234 225 221 216 208 210 212 215 223 210 198 216 258 256 236 221 219 209 207 162 209 172 178 140 150 153 172 115 146 229 181 243 153 149 104 207 214 205 220 237 246 241 250 247
258 251 250 249 239 234 232 235 229 229 232 231 235 232 206 218 225 211 217 213 200 162 191 262 226 226 220 219 226 224 224 181 174 159 121 136 153 192 192 179 200 197 130 149 265 269 213 241 242 258 260 252 259 260
247 246 244 245 241 228 228 231 233 227 227 227 226 226 224 224 224 226 226 219 214 194 182 257 236 229 221 218 219 221 216 190 165 140 97 200 153 128 265 61 251 168 157 167 214 236 225 251 269 269 262 257 270 267
233 240 237 242 239 231 222 222 228 217 223 228 226 220 218 214 213 211 202 217 224 216 175 173 224 223 214 210 212 214 209 198 187 155 180 195 166 147 145 223 250 228 214 230 235 259 259 263 269 273 270 269 271 270
234 230 232 238 233 230 221 221 220 224 221 221 217 217 215 209 204 199 194 195 206 205 196 192 281 207 207 201 203 207 204 199 202 185 184 160 186 174 160 242 135 239 236 247 253 254 257 259 259 274 275 280 274 274
223 236 250 238 235 211 215 217 224 224 218 217 203 195 202 211 216 231 219 252 178 190 200 171 255 199 174 162 135 182 179 198 212 199 170 162 153 192 241 249 234 245 252 254 255 250 255 266 270 272 277 272 272 275
294 249 261 233 217 212 214 214 219 217 215 210 209 210 198 189 205 217 225 247 209 201 186 162 161 214 170 140 139 143 168 170 187 204 183 157 173 219 226 219 232 244 240 250 260 261 261 256 267 270 268 266 268 268
287 279 233 223 207 206 208 210 207 198 206 196 185 183 187 198 177 170 171 181 211 211 202 174 146 161 170 117 99 125 173 195 200 222 151 211 229 241 241 242 245 250 253 255 244 246 246 249 263 265 259 262 260 258
293 313 242 226 219 209 228 200 195 192 184 183 178 156 158 149 142 172 165 169 198 190 191 200 180 138 177 134 174 201 172 176 185 241 176 204 249 243 242 240 246 251 254 256 258 262 265 270 272 265 258 250 243 242
315 294 303 215 224 214 192 186 174 176 187 187 155 131 147 155 166 165 173 129 164 207 185 176 196 187 156 165 131 176 176 177 215 140 159 213 246 245 248 241 247 253 257 261 264 267 263 260 257 255 241 231 229 229
156 144 123 147 129 165 176 169 172 180 154 138 142 156 151 165 213 169 163 168 187 188 181 167 155 153 137 170 141 173 188 206 116 181 213 224 248 249 252 254 255 256 257 255 253 251 244 243 231 225 220 216 220 226
178 133 111 115 121 124 151 176 172 179 170 120 142 166 181 161 206 188 176 172 201 174 170 153 119 141 151 163 163 200 193 123 194 201 221 233 237 248 253 258 254 251 245 243 239 227 222 220 210 200 200 207 219 234
134 170 155 159 154 151 163 175 173 180 140 138 143 185 181 193 97 119 149 138 151 167 161 118 100 138 161 197 188 122 161 227 211 222 225 286 252 256 261 258 249 238 230 222 218 210 200 195 190 185 185 195 203 223
115 116 67 160 189 193 181 179 204 194 161 154 148 108 103 73 328 101 125 115 132 158 148 145 163 198 202 192 172 204 173 211 239 260 346 345 341 327 261 232 217 207 204 197 190 182 176 173 171 171 169 173 204 264
109 85 99 132 184 204 208 196 207 200 208 157 167 159 132 111 135 108 89 73 138 165 198 217 202 223 107 187 193 169 184 279 310 303 2 6 16 18 23 171 184 178 173 168 167 162 159 158 159 157 167 176 214 285
91 110 67 16 164 163 177 186 253 96 65 41 119 129 104 110 120 123 138 139 145 164 268 249 50 178 221 197 181 61 25 328 318 338 7 346 340 344 222 168 160 157 157 153 151 152 150 151 156 155 148 142 160 299
105 246 252 354 130 130 126 82 85 92 78 78 85 89 93 94 99 105 110 228 216 199 277 226 159 145 74 24 359 12 16 1 331 330 340 119 124 131 138 140 146 148 152 152 150 153 151 148 150 144 127 103 40 5
292 296 268 206 188 150 108 69 85 95 102 104 82 63 73 72 83 74 64 69 93 55 38 31 45 23 342 332 325 315 329 320 299 221 144 143 135 141 149 149 148 148 152 156 157 152 144 141 136 134 138 134 116 52
249 267 186 184 153 98 93 76 68 77 90 86 84 60 63 77 63 53 43 45 62 39 52 20 2 343 329 319 343 344 348 328 268 328 325 202 169 167 154 150 156 153 152 157 157 149 146 145 145 150 156 185 228 291
218 179 136 115 87 74 78 55 80 92 92 100 75 58 50 41 40 30 51 50 52 29 359 342 344 348 356 4 5 4 2 351 318 299 253 207 186 176 164 159 159 164 160 158 154 157 157 162 171 185 186 195 220 302
113 118 84 54 85 51 36 52 67 35 75 18 63 54 20 49 53 61 73 63 62 4 1 357 355 352 7 17 14 18 23 34 48 124 125 139 150 155 161 163 165 168 164 163 171 180 181 191 202 196 204 232 260 267
98 59 37 40 30 44 29 34 48 64 69 43 59 70 28 31 51 64 74 57 358 1 12 12 10 29 45 35 35 48 61 75 80 97 110 122 140 150 156 161 167 170 170 177 192 203 205 204 204 215 232 245 257 268
84 12 22 11 18 22 33 20 11 47 64 15 75 58 11 6 74 59 63 357 359 3 8 19 34 42 44 51 57 60 69 76 76 89 95 95 105 129 142 156 171 192 210 218 215 212 211 216 226 239 250 263 275 281
68 12 35 348 6 36 349 45 28 22 18 68 45 328 10 65 63 57 25 346 349 357 3 16 32 52 54 59 64 67 68 72 77 85 94 100 101 121 133 156 210 250 251 245 237 227 225 231 244 259 267 273 280 288
50 354 4 23 359 332 46 45 43 49 53 30 352 4 38 62 58 358 349 353 353 7 17 23 37 44 48 53 56 57 55 56 55 57 52 30 8 341 323 308 295 278 276 265 257 246 246 251 261 269 274 275 285 294
62 25 17 341 30 29 47 41 34 28 11 349 318 36 68 41 20 337 348 3 21 35 41 43 45 50 50 44 47 48 38 25 23 22 25 13 353 323 304 294 289 284 277 270 264 261 263 268 273 277 281 287 294 297
29 353 359 19 55 48 41 24 27 5 344 7 53 70 78 49 47 44 40 48 54 58 55 54 53 49 50 41 39 34 24 18 17 15 3 47 35 13 353 332 311 298 289 281 279 280 279 282 284 282 288 294 296 300
0 1 9 47 46 35 10 33 51 70 76 85 98 106 92 73 64 67 66 62 58 55 51 48 45 43 46 42 44 41 38 36 37 32 15 345 330 319 312 304 299 295 291 288 284 281 278 278 280 282 286 291 294 296
352 353 62 54 75 52 81 81 81 83 88 93 107 106 108 97 57 44 48 49 50 51 50 45 40 34 29 22 7 348 334 328 346 340 325 313 308 303 300 298 297 294 291 290 289 288 288 287 287 287 288 290 292 294
14 28 57 82 75 77 78 63 76 92 85 84 78 95 94 88 79 32 28 26 25 26 24 21 20 15 3 344 336 320 309 305 304 304 303 302 299 295 295 294 295 293 291 290 290 290 291 291 292 293 293 292 293 294
33 38 55 77 78 60 16 20 115 105 91 94 81 90 81 78 92 121 29 22 14 0 351 349 345 344 342 335 323 307 298 298 300 300 299 297 294 295 296 301 292 288 289 289 290 290 291 291 291 291 292 293 293 294
Wind_Speed_850mb
59 69 62 64 56 54 55 54 54 56 51 48 45 45 43 39 39 37 29 24 34 11 8 15 13 12 15 19 10 20 11 3 3 5 7 8 6 11 6 5 14 14 17 10 4 6 17 21 13 15 10 17 32 30
71 64 72 67 62 64 62 59 60 62 56 57 52 43 44 45 45 49 39 35 34 20 10 27 26 18 19 19 22 44 6 12 19 7 1 6 4 2 7 6 3 5 15 12 18 13 3 46 14 42 29 29 34 33
73 76 65 71 65 61 68 64 62 60 54 48 63 62 56 45 45 53 52 39 36 20 20 30 25 34 31 21 22 21 12 17 18 12 12 4 5 6 8 9 5 11 11 6 8 9 17 31 38 34 39 56 45 40
67 68 65 68 64 64 70 61 59 59 59 59 58 52 50 46 49 53 67 52 47 14 7 8 20 40 38 39 32 29 18 32 27 21 9 6 5 11 6 4 8 12 18 14 6 11 9 33 46 51 51 53 48 51
71 67 65 65 65 75 59 68 51 60 59 57 56 55 54 50 49 51 56 65 60 31 10 6 15 29 31 44 45 40 33 39 30 10 5 5 10 8 1 3 12 21 12 9 10 33 24 33 45 39 42 50 50 54
64 64 67 61 60 61 61 59 64 44 48 54 64 54 54 53 43 51 28 63 69 61 10 5 16 30 36 37 51 51 43 39 29 16 8 10 11 11 6 8 39 25 27 40 25 59 49 56 55 54 52 58 59 56
49 53 58 54 64 63 59 59 55 56 43 41 41 42 42 53 57 47 10 13 49 63 13 5 5 16 34 36 36 45 40 23 22 14 10 13 11 23 5 19 7 28 39 54 58 63 48 68 51 54 46 53 45 48
39 46 44 57 61 58 63 62 57 53 59 53 37 37 36 36 36 36 42 8 30 55 13 6 6 4 21 14 10 22 20 30 18 17 9 8 16 13 13 6 23 47 58 60 71 67 74 70 64 63 58 53 53 55
15 23 33 51 71 59 59 60 56 53 50 59 53 46 36 34 26 33 22 17 25 29 9 8 11 10 26 11 14 14 18 6 18 8 9 21 8 14 18 33 42 60 63 75 72 59 58 53 58 60 58 60 57 55
17 18 32 28 42 49 56 57 59 54 51 42 48 29 18 25 24 30 20 22 22 15 15 4 16 5 17 6 4 12 11 6 7 10 26 11 16 73 61 42 50 63 72 77 58 56 57 57 63 63 57 54 53 51
11 14 19 36 37 58 57 74 59 56 53 57 24 14 30 56 31 20 12 10 7 5 12 14 29 10 24 7 6 14 6 5 7 9 14 6 8 45 71 78 91 95 91 83 70 64 58 58 61 51 53 54 49 46
7 7 6 23 37 30 54 66 65 64 29 46 22 39 40 18 13 10 10 5 7 12 12 12 20 22 21 17 7 11 9 6 10 11 7 6 19 63 56 65 81 87 84 82 82 75 64 57 52 44 39 41 37 34
6 6 5 9 18 31 38 47 60 58 36 43 19 13 14 9 9 15 15 2 8 8 21 17 5 21 13 12 6 6 12 12 15 9 8 13 38 55 67 71 65 61 60 59 58 51 43 38 30 27 27 28 26 23
7 16 17 13 11 13 19 32 63 55 28 9 9 6 7 7 7 8 9 10 12 15 37 27 10 7 11 7 6 8 7 8 10 9 14 9 40 41 41 37 39 43 43 39 36 32 31 28 25 22 20 18 15 14
8 15 19 18 19 20 18 22 48 49 11 8 10 8 8 6 5 8 9 8 7 14 37 13 8 10 4 7 8 5 7 7 10 12 8 5 14 24 26 27 29 30 29 27 26 26 25 23 20 19 16 14 11 9
12 4 11 6 15 17 16 21 25 14 7 11 8 7 5 6 6 4 7 9 9 23 19 8 6 7 8 6 9 13 11 13 9 4 13 15 13 6 4 10 15 20 24 27 27 25 21 19 17 16 14 10 6 4
8 26 19 2 7 13 19 22 14 13 11 12 3 9 11 17 10 10 11 10 11 15 5 5 10 12 3 5 9 9 7 4 9 9 11 13 11 11 5 2 10 14 19 23 26 26 25 22 19 14 10 6 3 4
19 12 3 3 6 9 15 16 3 4 9 8 2 5 7 13 17 15 15 15 9 3 1 4 3 4 4 7 5 3 8 7 10 9 9 7 5 2 4 11 17 22 28 32 29 25 22 19 15 11 7 4 2 2
2 4 5 1 3 6 6 4 3 7 6 6 8 11 13 15 16 10 3 6 8 6 3 3 4 3 3 7 7 11 13 13 13 12 3 7 15 18 20 23 26 27 23 22 24 24 21 17 14 10 7 4 1 3
12 12 4 11 13 6 6 7 7 9 4 4 7 10 12 12 12 13 11 8 8 7 12 9 5 6 7 9 11 11 11 10 5 1 3 6 10 13 17 18 19 22 24 23 21 19 17 15 11 8 5 4 3 1
18 9 2 7 8 7 9 7 10 9 8 9 8 6 9 11 12 12 14 15 17 12 5 10 10 14 12 11 12 10 9 5 3 5 6 8 14 19 20 22 21 19 17 16 15 15 14 12 9 6 3 2 2 1
9 7 7 7 6 8 12 13 10 8 6 8 7 7 11 5 10 13 13 25 12 11 14 18 21 21 15 10 9 8 6 5 6 8 10 10 21 18 18 18 17 16 16 15 14 11 9 7 6 5 4 3 1 2
18 13 9 9 8 11 7 8 6 9 7 3 5 7 6 6 8 10 12 11 11 25 25 22 22 16 12 11 11 11 9 6 2 3 11 16 17 16 16 16 16 15 15 12 9 8 8 7 7 6 6 4 4 5
13 10 14 13 19 4 5 10 7 7 7 6 5 5 5 5 6 11 7 7 17 26 28 25 22 13 10 12 12 11 13 14 14 13 14 14 13 16 17 16 15 13 12 10 9 8 9 10 10 8 7 7 7 8
8 21 15 13 16 10 10 7 8 7 6 6 5 6 4 7 6 7 5 12 34 35 31 24 21 21 21 18 17 17 16 18 18 19 21 19 15 14 12 9 7 6 5 6 7 9 11 12 10 10 10 10 11 13
15 18 12 10 11 8 7 6 8 7 5 6 7 7 5 5 8 7 4 24 31 37 34 28 26 22 25 22 19 17 18 16 15 14 14 10 7 6 4 2 2 3 5 8 10 12 15 14 13 12 13 14 16 19
11 10 15 17 9 7 5 8 8 8 9 9 6 9 6 9 8 6 16 25 34 29 23 19 18 20 21 20 17 15 15 14 13 11 8 5 4 4 4 5 6 8 10 10 11 15 17 17 17 18 19 19 20 25
10 20 10 22 13 18 6 7 9 9 6 12 3 12 7 7 5 16 16 26 22 21 23 24 21 19 19 20 18 14 10 10 9 8 6 6 4 4 5 6 8 9 10 11 13 15 17 19 21 22 26 28 28 29
12 29 12 8 10 16 15 10 6 9 12 6 4 6 6 10 18 24 27 26 24 24 24 23 24 20 20 21 17 15 14 13 10 7 6 4 4 8 8 8 9 10 12 14 16 19 21 23 25 30 32 35 39 42
16 28 9 11 9 10 13 13 13 23 33 35 37 44 39 42 46 39 41 39 39 40 36 32 27 23 23 17 17 17 18 19 18 14 10 9 14 16 17 18 19 21 23 25 26 27 29 33 35 39 42 45 48 50
20 16 7 14 9 8 14 22 27 30 32 34 35 32 24 19 39 48 40 39 41 40 38 39 36 34 30 25 21 17 13 10 15 17 18 20 23 25 27 28 29 31 33 35 38 40 41 43 45 48 50 52 53 55
20 17 6 7 3 7 7 5 7 8 7 9 9 10 10 9 11 32 58 32 34 36 37 39 44 49 39 29 28 26 31 35 37 38 38 38 40 42 43 45 45 47 48 48 49 50 52 54 57 58 60 61 63 64
7 13 14 8 5 4 9 6 3 6 6 5 5 12 12 7 9 6 39 63 42 32 31 34 38 46 54 43 35 34 37 41 44 46 47 48 51 51 51 47 50 54 56 59 60 61 62 64 66 68 69 70 71 72
Wind_Direction_850mb
274 252 246 247 241 244 238 234 243 233 220 224 222 220 215 215 216 217 220 218 215 210 251 215 185 158 151 181 148 158 113 234 36 145 150 175 156 200 140 170 170 154 170 204 85 215 267 164 110 163 195 157 171 192
261 268 255 239 241 246 245 238 236 239 228 208 217 221 215 212 210 213 210 211 207 217 253 240 237 216 207 209 171 165 203 157 165 102 80 96 147 85 136 220 175 234 200 183 181 204 241 178 191 217 232 219 222 229
259 253 263 245 242 241 240 240 232 230 234 225 221 216 208 210 212 215 223 210 198 216 258 256 236 221 219 209 207 162 209 172 178 140 150 153 172 115 146 229 181 243 153 149 104 207 214 205 220 237 246 241 250 247
258 251 250 249 239 234 232 235 229 229 232 231 235 232 206 218 225 211 217 213 200 162 191 262 226 226 220 219 226 224 224 181 174 159 121 136 153 192 192 179 200 197 130 149 265 269 213 241 242 258 260 252 259 260
247 246 244 245 241 228 228 231 233 227 227 227 226 226 224 224 224 226 226 219 214 194 182 257 236 229 221 218 219 221 216 190 165 140 97 200 153 128 265 61 251 168 157 167 214 236 225 251 269 269 262 257 270 267
233 240 237 242 239 231 222 222 228 217 223 228 226 220 218 214 213 211 202 217 224 216 175 173 224 223 214 210 212 214 209 198 187 155 180 195 166 147 145 223 250 228 214 230 235 259 259 263 269 273 270 269 271 270
234 230 232 238 233 230 221 221 220 224 221 221 217 217 215 209 204 199 194 195 206 205 196 192 281 207 207 201 203 207 204 199 202 185 184 160 186 174 160 242 135 239 236 247 253 254 257 259 259 274 275 280 274 274
223 236 250 238 235 211 215 217 224 224 218 217 203 195 202 211 216 231 219 252 178 190 200 171 255 199 174 162 135 182 179 198 212 199 170 162 153 192 241 249 234 245 252 254 255 250 255 266 270 272 277 272 272 275
294 249 261 233 217 212 214 214 219 217 215 210 209 210 198 189 205 217 225 247 209 201 186 162 161 214 170 140 139 143 168 170 187 204 183 157 173 219 226 219 232 244 240 250 260 261 261 256 267 270 268 266 268 268
287 279 233 223 207 206 208 210 207 198 206 196 185 183 187 198 177 170 171 181 211 211 202 174 146 161 170 117 99 125 173 195 200 222 151 211 229 241 241 242 245 250 253 255 244 246 246 249 263 265 259 262 260 258
293 313 242 226 219 209 228 200 195 192 184 183 178 156 158 149 142 172 165 169 198 190 191 200 180 138 177 134 174 201 172 176 185 241 176 204 249 243 242 240 246 251 254 256 258 262 265 270 272 265 258 250 243 242
315 294 303 215 224 214 192 186 174 176 187 187 155 131 147 155 166 165 173 129 164 207 185 176 196 187 156 165 131 176 176 177 215 140 159 213 246 245 248 241 247 253 257 261 264 267 263 260 257 255 241 231 229 229
156 144 123 147 129 165 176 169 172 180 154 138 142 156 151 165 213 169 163 168 187 188 181 167 155 153 137 170 141 173 188 206 116 181 213 224 248 249 252 254 255 256 257 255 253 251 244 243 231 225 220 216 220 226
178 133 111 115 121 124 151 176 172 179 170 120 142 166 181 161 206 188 176 172 201 174 170 153 119 141 151 163 163 200 193 123 194 201 221 233 237 248 253 258 254 251 245 243 239 227 222 220 210 200 200 207 219 234
134 170 155 159 154 151 163 175 173 180 140 138 143 185 181 193 97 119 149 138 151 167 161 118 100 138 161 197 188 122 161 227 211 222 225 286 252 256 261 258 249 238 230 222 218 210 200 195 190 185 185 195 203 223
115 116 67 160 189 193 181 179 204 194 161 154 148 108 103 73 328 101 125 115 132 158 148 145 163 198 202 192 172 204 173 211 239 260 346 345 341 327 261 232 217 207 204 197 190 182 176 173 171 171 169 173 204 264
109 85 99 132 184 204 208 196 207 200 208 157 167 159 132 111 135 108 89 73 138 165 198 217 202 223 107 187 193 169 184 279 310 303 2 6 16 18 23 171 184 178 173 168 167 162 159 158 159 157 167 176 214 285
91 110 67 16 164 163 177 186 253 96 65 41 119 129 104 110 120 123 138 139 145 164 268 249 50 178 221 197 181 61 25 328 318 338 7 346 340 344 222 168 160 157 157 153 151 152 150 151 156 155 148 142 160 299
105 246 252 354 130 130 126 82 85 92 78 78 85 89 93 94 99 105 110 228 216 199 277 226 159 145 74 24 359 12 16 1 331 330 340 119 124 131 138 140 146 148 152 152 150 153 151 148 150 144 127 103 40 5
292 296 268 206 188 150 108 69 85 95 102 104 82 63 73 72 83 74 64 69 93 55 38 31 45 23 342 332 325 315 329 320 299 221 144 143 135 141 149 149 148 148 152 156 157 152 144 141 136 134 138 134 116 52
249 267 186 184 153 98 93 76 68 77 90 86 84 60 63 77 63 53 43 45 62 39 52 20 2 343 329 319 343 344 348 328 268 328 325 202 169 167 154 150 156 153 152 157 157 149 146 145 145 150 156 185 228 291
218 179 136 115 87 74 78 55 80 92 92 100 75 58 50 41 40 30 51 50 52 29 359 342 344 348 356 4 5 4 2 351 318 299 253 207 186 176 164 159 159 164 160 158 154 157 157 162 171 185 186 195 220 302
113 118 84 54 85 51 36 52 67 35 75 18 63 54 20 49 53 61 73 63 62 4 1 357 355 352 7 17 14 18 23 34 48 124 125 139 150 155 161 163 165 168 164 163 171 180 181 191 202 196 204 232 260 267
98 59 37 40 30 44 29 34 48 64 69 43 59 70 28 31 51 64 74 57 358 1 12 12 10 29 45 35 35 48 61 75 80 97 110 122 140 150 156 161 167 170 170 177 192 203 205 204 204 215 232 245 257 268
84 12 22 11 18 22 33 20 11 47 64 15 75 58 11 6 74 59 63 357 359 3 8 19 34 42 44 51 57 60 69 76 76 89 95 95 105 129 142 156 171 192 210 218 215 212 211 216 226 239 250 263 275 281
68 12 35 348 6 36 349 45 28 22 18 68 45 328 10 65 63 57 25 346 349 357 3 16 32 52 54 59 64 67 68 72 77 85 94 100 101 121 133 156 210 250 251 245 237 227 225 231 244 259 267 273 280 288
50 354 4 23 359 332 46 45 43 49 53 30 352 4 38 62 58 358 349 353 353 7 17 23 37 44 48 53 56 57 55 56 55 57 52 30 8 341 323 308 295 278 276 265 257 246 246 251 261 269 274 275 285 294
62 25 17 341 30 29 47 41 34 28 11 349 318 36 68 41 20 337 348 3 21 35 41 43 45 50 50 44 47 48 38 25 23 22 25 13 353 323 304 294 289 284 277 270 264 261 263 268 273 277 281 287 294 297
29 353 359 19 55 48 41 24 27 5 344 7 53 70 78 49 47 44 40 48 54 58 55 54 53 49 50 41 39 34 24 18 17 15 3 47 35 13 353 332 311 298 289 281 279 280 279 282 284 282 288 294 296 300
0 1 9 47 46 35 10 33 51 70 76 85 98 106 92 73 64 67 66 62 58 55 51 48 45 43 46 42 44 41 38 36 37 32 15 345 330 319 312 304 299 295 291 288 284 281 278 278 280 282 286 291 294 296
352 353 62 54 75 52 81 81 81 83 88 93 107 106 108 97 57 44 48 49 50 51 50 45 40 34 29 22 7 348 334 328 346 340 325 313 308 303 300 298 297 294 291 290 289 288 288 287 287 287 288 290 292 294
14 28 57 82 75 77 78 63 76 92 85 84 78 95 94 88 79 32 28 26 25 26 24 21 20 15 3 344 336 320 309 305 304 304 303 302 299 295 295 294 295 293 291 290 290 290 291 291 292 293 293 292 293 294
33 38 55 77 78 60 16 20 115 105 91 94 81 90 81 78 92 121 29 22 14 0 351 349 345 344 342 335 323 307 298 298 300 300 299 297 294 295 296 301 292 288 289 289 290 290 291 291 291 291 292 293 293 294